Tracking 23758 objects as of 27-Oct-2021
HD Live streaming from Space Station
objects crossing your sky now

STARLINK-3082

Track STARLINK-3082 now!
10-day predictions
STARLINK-3082 is classified as:


NORAD ID: 49162
Int'l Code: 2021-082AJ
Perigee: 364.2 km
Apogee: 369.4 km
Inclination: 70.0 °
Period: 91.7 minutes
Semi major axis: 6737 km
RCS: Unknown
Launch date: September 14, 2021
Source: United States (US)
Launch site: AIR FORCE WESTERN TEST RANGE (AFWTR)
aabbcc
Your satellite tracking list
Your tracking list is empty




NASA's NSSDC Master Catalog

Two Line Element Set (TLE):
1 49162U 21082AJ  21300.16667824  .00049467  00000-0  41403-3 0  9996
2 49162  70.0011   5.8399 0003907 285.0210 285.8868 15.69728316  8027
Source of the keplerian elements: AFSPC